Hourly Data Report for March 16, 2020

TORONTO CITY
ONTARIO
Current Station Operator: ECCC - MSC

43°40'00.000" N
79°24'00.000" W
112.50 m
6158355
71508
XTO

Download Data

Hourly Data (March 2020)
Hourly Data Report for March 16, 2020
TIME
LST
Temp Definition
°C
Dew Point Definition
°C
Rel Hum Definition
%
Precip. Amount Definition
mm

Wind Dir Definition
10's deg

Wind Spd Definition
km/h
Visibility Definition
km
Stn Press Definition
kPa
Hmdx Definition


Wind Chill Definition


Weather Definition


00:00 -0.7 -12.7 40 0.0       102.22     LegendNANA
01:00 -1.3 -11.6 45 0.0       102.17     LegendNANA
02:00 -1.4 -10.9 49 0.0       102.17     LegendNANA
03:00 -1.1 -10.4 49 0.0       102.11     LegendNANA
04:00 -0.4 -10.0 48 0.0       102.03     LegendNANA
05:00 -0.5 -8.0 57 0.0       102.01     LegendNANA
06:00 -0.8 -7.9 59 0.0       102.00     LegendNANA
07:00 -1.1 -8.4 57 0.0       101.98     LegendNANA
08:00 -0.4 -9.6 50 0.0       101.99     LegendNANA
09:00 0.2 -11.0 43 0.0       101.92     LegendNANA
10:00 0.9 -10.0 44 0.3       101.89     LegendNANA
11:00 1.2 -14.8 29 0.0       101.71     LegendNANA
12:00 1.0 -11.6 38 0.0       101.63     LegendNANA
13:00 2.1 -10.9 38 0.0       101.47     LegendNANA
14:00 2.7 -9.6 40 0.3       101.30     LegendNANA
15:00 2.8 -8.0 45 0.3       101.21     LegendNANA
16:00 1.7 -6.7 53 0.0       101.02     LegendNANA
17:00 1.8 -5.5 58 0.0       100.96     LegendNANA
18:00 1.6 -4.2 65 0.0       100.89     LegendNANA
19:00 1.9 -3.8 66 0.0       100.83     LegendNANA
20:00 2.4 -3.8 63 0.0       100.82     LegendNANA
21:00 1.6 -2.6 74 0.2       100.83     LegendNANA
22:00 1.8 -0.2 87 0.5       100.68     LegendNANA
23:00 1.8 -0.2 87 0.0       100.63     LegendNANA

Notes on Data Quality.

Legend

  • E = Estimated
  • M = Missing
  • NA = Not Available*
  • [empty] = Indicates an unobserved value
Date modified: